Location: ?ejkovice
(49.0137°N, 14.3821°E)
Time: 16:49:35
(UTC+00:00)

NPP - Pass Details

Date: 23 May 2024
Orbit: 826 x 827 km, 98.7° (Epoch: 13 June)

Event Time Altitude Azimuth Distance (km) Brightness Sun altitude
Rises 00:58:58 0° 14° (NNE) 3,379 8.4 -15.4°
Reaches altitude 10° 01:01:20 10° 15° (NNE) 2,441 7.4 -15.2°
Maximum altitude 01:06:46 88° 108° (ESE) 834 3.6 -14.8°
Enters shadow 01:10:34 20° 196° (SSW) 1,812 4.8 -14.5°
